Wind_Speed
13 12 11 11 11 11 12 11 10 11 13 14 13 13 12 12 14 15 13 11 10 11 12 12 13 13 13 13 12 12 12 12 11 11 11 11 12 13 13 13 12 12 11 10 9 8 7 6 5 5 4 4 4 3 3 3 3 3 4 4 3 3 4 5 6 7 8 8 8 8 8 9 9 10 12 13 14 15 16 17 17 17 17 16 14
12 11 10 9 9 9 10 9 10 12 14 15 14 14 13 13 15 15 14 14 14 14 14 14 15 15 14 13 13 12 12 11 10 10 9 9 9 9 9 9 9 9 8 7 7 6 5 5 5 5 5 5 5 5 5 4 3 4 5 5 5 6 6 7 7 7 7 7 8 8 8 10 11 12 13 15 17 18 18 18 18 18 18 19 19
13 11 9 7 7 7 7 6 7 9 12 12 11 11 11 13 14 13 13 15 17 18 17 16 16 15 15 14 14 13 12 11 10 9 8 7 7 6 6 6 6 6 6 6 6 5 5 5 6 6 7 7 8 8 8 6 4 6 7 6 6 7 8 8 7 7 8 9 9 10 10 11 13 15 16 17 18 19 18 18 18 18 18 20 22
14 11 8 6 6 6 6 6 6 7 8 8 7 8 8 10 12 15 16 16 19 20 19 18 17 16 16 15 14 13 12 12 11 10 9 8 7 7 6 6 6 6 7 7 6 6 6 7 7 8 8 9 9 10 9 8 9 10 10 9 9 10 10 9 9 10 11 11 12 13 14 14 16 17 19 19 19 19 19 18 19 20 20 19 21
13 11 9 7 6 7 6 7 7 6 6 5 6 8 8 9 12 16 19 19 20 21 20 19 19 18 18 17 16 15 15 14 13 12 12 11 10 9 9 9 9 9 10 10 9 8 8 8 9 9 9 10 10 11 11 10 11 12 10 9 10 10 9 9 10 12 13 14 15 17 17 18 19 19 19 19 18 18 18 19 20 21 23 23 22
12 9 8 7 7 7 6 6 7 6 5 6 6 7 9 11 14 18 20 21 22 23 22 22 21 21 20 20 19 19 18 18 17 16 15 14 13 13 13 12 12 13 13 13 13 12 11 11 10 10 10 10 10 11 11 11 12 12 10 8 9 10 9 9 11 12 13 14 17 20 20 20 20 20 21 22 20 17 16 18 20 20 23 27 27
9 8 7 7 7 6 4 5 7 6 6 7 7 8 9 12 14 17 20 20 22 23 24 24 24 23 23 23 22 22 22 21 20 20 19 18 18 17 17 17 17 17 17 17 17 15 13 12 12 11 11 11 11 11 11 10 11 11 10 9 11 12 11 11 12 14 14 15 17 20 21 21 21 22 24 24 24 21 19 21 24 22 22 26 28
11 10 8 7 7 6 5 6 7 6 6 7 9 10 10 12 14 16 19 21 22 24 26 27 26 26 26 26 26 25 25 24 23 22 22 22 22 21 21 21 20 20 20 20 20 18 17 15 14 13 13 13 12 12 11 10 9 9 10 10 12 13 12 12 13 14 14 17 19 20 21 20 19 21 23 24 25 26 25 25 26 25 24 25 27
14 12 11 10 9 8 8 8 8 9 9 9 10 11 11 13 15 17 19 23 24 25 27 29 29 29 29 29 29 29 28 27 26 26 25 25 25 25 25 25 24 24 24 23 21 20 19 17 16 16 15 13 12 12 11 10 9 9 11 12 12 12 12 13 15 14 15 18 19 18 20 19 16 18 24 26 28 30 30 27 26 27 27 27 28
15 15 14 12 11 10 11 11 11 12 13 13 12 12 13 15 17 19 21 25 26 27 29 31 32 32 32 32 32 32 31 30 29 28 28 28 28 29 28 28 28 28 28 26 24 23 21 19 19 20 18 15 12 12 12 11 10 11 13 14 13 13 14 15 15 16 17 17 15 15 18 20 20 23 28 29 31 33 32 31 30 29 29 31 31
15 15 14 12 12 11 11 12 14 15 16 16 15 14 14 16 19 20 22 25 28 29 30 32 34 34 34 35 35 35 34 33 31 31 31 31 30 31 31 31 32 31 29 29 29 27 26 25 23 20 16 14 12 12 12 12 12 12 14 15 15 14 15 16 16 17 17 16 15 17 21 23 25 28 30 30 32 34 35 35 34 32 32 34 35
15 14 13 12 12 12 11 12 14 16 18 19 19 17 17 17 20 22 24 26 30 31 31 32 35 36 36 37 38 37 37 36 35 34 35 33 32 32 33 32 33 33 30 30 31 31 30 32 31 22 14 12 13 13 13 14 13 13 13 15 16 16 16 17 18 19 19 19 20 22 24 25 28 32 32 32 32 34 35 35 35 35 35 36 37
15 14 14 13 12 12 12 12 14 16 18 20 21 19 18 18 20 23 24 26 30 33 33 33 36 38 38 39 40 40 40 40 39 38 38 37 36 36 36 35 36 36 35 34 35 36 37 37 35 29 20 15 14 15 15 15 14 14 15 15 17 18 18 19 19 19 21 22 23 25 27 27 29 32 33 32 33 34 35 36 36 37 38 38 39
16 16 16 15 13 13 13 13 14 16 18 20 21 20 19 19 20 21 22 24 26 28 30 31 33 35 36 38 41 44 45 45 44 43 42 42 41 40 38 38 39 38 39 39 38 39 40 35 29 26 22 18 17 17 17 16 15 16 17 18 18 20 20 21 21 21 22 23 24 26 28 28 29 32 33 33 34 35 36 37 38 39 39 40 41
18 18 17 16 15 14 14 14 14 15 17 20 21 22 21 21 20 21 22 23 24 25 26 27 28 29 30 33 36 40 44 47 47 47 47 46 45 43 41 41 41 40 41 41 37 34 32 27 22 21 19 18 18 18 17 17 17 18 19 20 20 21 21 22 22 23 23 24 25 27 28 29 30 33 34 34 36 37 38 39 40 41 43 44 45
19 18 17 16 16 15 16 15 15 16 17 18 20 22 22 22 23 23 24 25 26 26 27 28 28 27 27 28 30 33 38 43 45 47 50 51 48 45 42 41 42 41 39 35 30 26 23 21 21 21 20 19 18 18 18 19 19 20 21 22 22 22 22 23 24 25 26 26 27 29 30 30 32 34 35 36 38 39 41 42 42 43 45 47 47
20 19 18 18 18 18 18 18 19 19 20 21 23 24 24 25 25 26 28 29 29 29 30 30 30 28 26 27 29 32 35 37 38 40 47 52 51 48 45 43 42 40 34 28 25 23 22 22 23 22 19 18 18 18 19 20 21 21 22 23 23 23 24 25 26 27 28 29 29 31 32 33 35 36 37 38 39 40 42 43 43 44 46 47 48
21 21 21 21 22 22 23 23 24 24 24 25 27 28 28 29 29 29 31 32 33 33 33 34 33 31 29 29 32 34 33 32 32 34 38 42 44 45 44 42 40 36 30 27 25 23 23 25 24 21 19 19 19 19 20 21 22 22 23 24 25 25 25 25 27 28 30 31 32 34 35 37 38 39 40 40 41 42 44 44 44 45 46 47 48
22 23 25 25 26 27 28 29 29 29 29 30 31 31 32 33 33 32 32 34 35 34 34 36 35 33 32 32 34 34 33 30 29 31 32 33 35 37 39 39 37 33 30 30 27 25 25 26 24 22 20 20 20 20 20 21 22 23 24 25 26 27 27 26 28 30 32 33 35 36 37 39 40 41 42 42 43 44 45 45 44 44 45 46 45
25 27 29 30 31 32 33 33 34 34 34 34 35 35 35 35 36 35 35 35 36 35 34 35 35 34 33 34 34 33 32 31 28 29 32 32 31 33 34 35 35 33 31 30 28 27 27 27 24 22 21 20 20 21 21 22 23 24 24 24 26 28 29 29 30 32 35 36 38 39 40 41 42 42 43 44 44 45 46 46 44 43 43 43 42
30 31 32 33 34 34 35 35 36 36 35 35 36 36 36 37 38 37 36 35 35 34 33 33 33 33 33 34 34 33 32 32 31 32 34 33 33 35 34 33 34 36 35 32 29 29 29 26 23 21 21 21 21 21 22 23 24 24 24 24 25 27 30 32 33 34 36 38 40 41 41 42 43 44 44 45 46 46 47 46 45 43 42 41 40
36 36 36 36 36 36 36 36 36 35 34 34 34 34 34 35 36 36 35 34 33 33 33 32 33 33 34 34 35 34 33 33 33 35 36 35 38 39 36 36 39 39 35 32 30 29 28 24 22 22 22 22 22 23 23 25 25 25 25 26 27 29 31 34 36 37 39 40 40 41 41 42 42 43 44 44 45 44 44 43 42 40 39 39 39
40 41 41 41 40 39 39 38 38 37 36 35 35 34 34 34 34 35 35 34 33 33 33 33 32 32 33 33 33 34 35 34 33 36 37 36 40 42 41 42 43 35 29 29 30 29 25 24 23 23 23 23 24 25 25 26 26 26 27 28 30 32 34 36 38 39 40 40 40 41 41 41 42 42 43 43 42 41 40 39 38 38 38 38 39
44 44 44 43 43 42 42 41 42 42 42 42 41 41 40 39 39 39 38 38 38 37 36 36 35 34 33 32 32 33 35 34 33 35 37 36 38 42 43 43 38 29 24 27 30 27 25 26 25 25 25 25 26 26 27 27 26 27 29 30 32 34 35 36 37 38 38 39 40 40 40 41 41 41 41 40 39 38 38 37 36 36 37 38 39
45 45 45 45 44 44 44 45 46 46 47 47 47 47 47 46 45 44 43 43 42 41 41 41 40 38 35 34 33 33 33 33 33 35 35 36 40 44 44 38 30 23 22 24 25 24 26 27 27 26 26 26 27 28 27 26 27 28 30 31 32 33 34 35 36 36 37 38 39 39 40 40 39 39 38 36 35 35 36 36 36 36 37 38 39
46 47 47 47 47 47 47 48 48 49 50 51 51 51 51 51 50 49 47 46 45 44 44 44 44 43 41 39 38 36 35 35 34 34 33 32 33 37 35 28 22 19 20 21 22 24 27 27 27 27 27 28 28 28 27 26 27 28 30 31 32 33 33 34 35 35 36 37 38 38 38 37 36 34 34 34 33 34 36 37 37 38 38 39 40
47 47 46 47 47 48 48 49 49 50 50 50 51 51 51 51 52 52 51 50 48 47 45 44 45 46 46 45 44 41 39 38 36 35 32 28 25 25 24 23 21 22 24 26 27 28 28 28 29 29 28 29 29 28 27 26 27 29 31 31 31 31 32 32 33 34 35 35 36 35 34 33 32 31 31 32 33 33 35 37 38 40 41 41 42
43 43 43 43 43 44 46 47 48 48 48 49 49 48 48 48 49 50 51 52 51 49 47 46 46 43 42 43 44 42 40 40 39 36 32 28 26 25 25 25 26 27 28 29 29 29 30 30 31 31 30 30 30 28 27 27 28 30 31 29 28 28 29 30 31 32 32 32 32 31 30 29 29 29 30 31 32 33 34 36 38 39 41 42 42
38 38 38 38 38 39 41 42 43 44 45 46 46 46 47 46 46 46 47 49 51 51 48 48 48 44 40 41 41 39 37 38 38 35 31 28 28 25 21 22 25 27 28 29 30 31 32 33 33 33 32 32 31 29 28 28 29 30 28 26 27 28 29 29 30 30 30 29 28 27 27 27 27 28 29 30 31 32 34 35 37 38 39 40 39
34 33 33 33 33 34 35 36 37 39 40 41 41 42 44 46 46 46 45 46 50 53 52 50 49 47 45 44 43 40 36 34 33 33 31 28 27 24 21 21 24 26 27 29 31 32 33 33 33 33 32 32 31 30 29 29 30 28 26 24 26 28 29 29 29 28 27 26 25 25 26 26 27 27 28 30 31 32 33 34 35 36 36 36 34
31 30 29 30 30 31 32 33 34 36 37 37 38 39 40 42 44 46 46 46 48 50 51 52 52 51 48 46 45 44 41 36 33 30 28 28 27 24 23 24 26 27 29 31 32 33 33 33 33 33 33 33 32 30 29 29 28 26 25 25 26 27 27 27 26 25 25 24 24 24 25 25 26 27 28 29 30 31 32 33 33 34 33 32 29
28 28 28 28 29 30 31 32 33 34 35 36 37 37 38 39 40 42 44 45 47 48 49 50 51 51 50 48 46 43 40 41 42 39 33 30 28 26 27 30 30 31 33 34 34 35 35 35 35 35 33 32 32 30 28 27 25 24 24 25 27 27 26 24 23 22 23 23 23 23 24 24 25 27 28 29 31 31 31 31 31 31 30 28 25
27 28 30 30 31 31 30 30 31 31 32 33 35 36 36 37 38 38 38 39 41 44 46 47 47 49 51 51 49 43 36 34 38 40 35 30 30 32 32 33 34 35 36 37 36 37 36 35 34 33 33 32 31 28 26 25 24 23 23 24 26 26 24 22 21 21 22 22 22 22 23 24 25 26 28 29 30 30 29 28 28 28 27 24 22
26 27 28 28 29 29 29 30 30 29 29 29 31 33 34 35 35 35 35 36 36 35 38 40 42 45 50 52 51 49 42 34 32 32 32 33 34 35 35 35 35 36 38 38 37 37 36 35 34 34 33 30 27 25 24 24 23 22 23 23 24 23 21 19 20 21 21 21 21 21 22 23 24 26 27 28 28 27 27 26 27 26 25 22 20
25 24 23 24 26 27 29 30 31 31 30 29 28 30 32 32 32 33 33 36 36 33 31 33 34 38 43 47 48 48 47 44 38 32 33 37 38 37 38 38 36 36 38 39 38 38 37 34 32 31 28 25 23 23 24 23 22 22 22 21 21 20 18 18 19 20 20 20 20 21 21 22 23 24 25 26 26 25 24 25 25 24 23 22 20
22 22 22 23 25 27 28 30 31 31 31 29 27 28 28 29 30 30 29 31 34 33 31 30 31 32 36 40 42 42 43 44 41 36 36 41 39 35 33 32 32 34 37 36 34 32 30 26 24 24 23 22 22 23 23 22 21 21 20 20 18 17 16 16 18 19 19 19 19 20 21 21 22 23 24 24 24 24 24 24 24 23 22 21 20
21 22 22 23 25 25 25 26 25 25 24 23 23 24 25 25 25 25 25 27 29 29 29 28 28 28 30 33 36 36 36 38 39 38 38 40 38 32 27 24 25 29 31 29 25 23 21 19 19 21 21 21 22 23 22 20 20 20 19 18 16 14 14 15 17 17 18 18 19 19 20 20 21 21 22 23 23 23 24 24 24 23 22 21 20
20 20 21 21 21 20 18 16 16 16 16 17 18 20 22 22 21 21 23 25 26 27 26 24 24 26 27 27 29 29 30 32 34 35 37 38 38 34 29 25 26 28 28 25 23 21 19 18 19 20 20 21 23 23 21 19 19 18 17 15 13 13 13 15 15 16 16 17 17 18 18 19 20 21 22 22 23 23 24 25 25 23 22 21 20
17 17 17 17 15 15 14 13 13 13 14 16 18 20 20 19 17 18 22 22 23 24 20 16 18 22 23 23 23 23 25 27 29 30 32 34 34 33 30 28 29 29 27 25 23 20 18 18 19 20 21 22 22 22 20 19 18 17 15 13 11 11 13 14 15 15 15 15 16 16 17 18 20 21 22 23 23 24 24 25 24 23 21 20 20
15 16 16 15 14 13 14 14 14 14 15 16 18 19 18 15 13 18 21 20 22 24 19 13 16 19 19 19 19 19 21 25 28 29 30 29 28 29 29 28 28 28 27 25 22 19 18 20 20 20 22 23 22 21 20 18 16 15 13 11 11 11 12 13 14 14 14 14 15 16 17 18 19 21 22 23 24 24 23 24 23 23 21 20 20
15 15 15 14 14 14 14 14 14 14 14 14 14 15 14 11 13 20 21 20 22 23 21 19 19 17 16 16 17 18 20 23 25 28 31 31 29 29 30 30 31 31 28 24 21 19 20 21 21 22 23 24 22 21 19 16 14 13 11 10 10 11 11 12 13 12 13 13 14 15 16 18 19 20 22 23 23 23 23 24 24 23 21 20 20
14 14 14 13 14 14 14 14 13 12 12 11 11 10 8 9 16 20 19 19 19 20 20 21 20 17 16 18 18 17 19 20 19 22 28 31 32 33 34 36 36 33 27 22 21 22 22 22 22 23 24 23 21 19 17 15 14 12 11 10 10 10 11 11 11 11 11 12 13 14 15 17 18 20 21 22 23 23 24 24 24 23 22 21 20
14 14 14 14 14 14 14 14 14 12 10 8 8 6 3 9 16 17 16 17 17 17 19 19 16 15 16 18 18 18 20 20 18 18 22 27 31 33 34 34 31 26 22 21 22 23 22 21 23 24 24 21 18 17 16 15 13 12 10 10 9 10 10 11 10 10 10 11 12 13 15 16 17 19 20 21 22 23 23 24 24 24 23 22 21
14 14 14 14 14 14 14 14 14 12 8 6 5 3 2 9 13 13 13 15 17 17 16 15 13 13 14 15 16 18 19 20 20 20 21 24 28 29 27 24 21 20 20 21 21 20 19 21 23 22 20 18 17 16 16 14 13 12 10 9 9 9 10 10 9 9 10 11 11 13 14 15 16 18 19 20 22 23 23 23 24 25 25 24 23
14 13 13 13 13 13 14 14 14 12 8 6 4 4 5 8 11 11 12 14 16 16 15 13 13 13 13 13 13 14 14 15 16 17 20 24 26 25 22 19 17 18 18 18 18 18 19 20 20 19 16 16 16 16 15 14 13 11 10 9 9 9 9 9 8 8 9 10 11 12 12 13 15 17 18 19 21 22 23 23 24 25 25 25 24
15 12 12 12 11 12 12 13 12 11 8 7 8 8 7 6 7 9 11 11 12 12 12 12 12 12 12 12 13 12 11 11 13 16 20 22 22 20 19 18 16 15 15 16 17 18 18 18 17 15 14 15 15 15 14 14 12 11 9 8 8 9 9 8 7 8 9 9 10 11 12 13 14 15 17 18 20 21 22 22 23 24 25 25 25
16 13 12 11 10 11 11 12 12 10 8 7 7 8 8 7 8 9 8 8 9 10 11 11 11 10 10 11 13 12 12 13 15 16 17 18 17 17 17 15 13 13 14 16 18 18 17 15 14 14 14 14 14 14 14 13 11 9 8 8 8 9 8 8 7 8 8 9 9 10 11 12 13 14 16 17 18 19 20 22 23 24 25 26 25
16 15 13 11 10 10 11 11 11 10 9 8 6 5 5 7 8 8 8 8 9 11 11 11 11 9 8 9 10 11 12 13 15 15 15 16 17 16 15 13 12 13 14 16 17 16 14 13 13 13 13 13 13 13 12 11 9 8 8 8 9 9 8 8 8 8 8 9 9 10 11 11 12 13 14 16 17 18 20 21 22 24 25 25 25
15 14 13 12 10 10 10 10 10 9 9 9 7 5 3 2 4 6 8 9 10 11 11 11 11 10 8 8 10 11 13 13 14 13 14 15 15 14 13 12 11 13 14 14 14 13 13 13 13 12 12 11 11 11 11 9 8 7 8 9 10 9 8 8 8 8 8 9 9 10 11 11 12 12 14 15 16 18 19 20 21 22 23 24 25
14 13 13 12 10 9 9 9 8 8 8 8 7 6 4 1 3 6 7 8 9 11 11 12 11 9 8 9 11 12 12 12 12 12 12 12 12 12 13 14 15 15 14 13 13 13 13 13 12 11 10 10 10 10 9 8 7 8 9 9 9 8 7 8 8 8 9 9 10 10 11 11 12 12 13 14 16 17 18 19 20 21 22 23 24
13 13 13 12 10 9 8 7 7 6 6 6 5 5 5 4 1 6 8 8 8 9 9 9 9 10 10 11 12 12 11 11 12 12 12 13 14 14 15 15 15 14 13 13 13 13 12 11 10 9 9 9 9 9 8 7 8 8 9 8 7 7 7 8 8 8 9 10 10 11 11 11 12 12 13 14 15 16 16 17 18 20 21 21 23
Wind_Direction
191 196 200 207 213 221 228 234 241 249 261 270 269 265 263 256 249 244 237 231 229 223 207 191 184 183 182 184 182 180 180 176 175 173 170 170 163 155 152 150 149 146 143 142 141 141 145 147 152 159 162 167 171 179 182 188 209 213 211 222 239 259 277 283 289 302 309 312 316 319 324 328 331 335 337 336 335 334 334 334 333 333 331 330 333
187 189 192 201 210 222 231 237 245 252 259 264 265 265 258 247 245 242 235 231 226 219 210 196 190 188 187 191 190 189 189 186 186 184 182 180 174 167 163 160 159 158 155 159 160 164 173 178 193 204 208 219 226 229 229 235 258 254 239 235 250 261 270 279 286 289 290 296 302 304 309 316 318 321 325 328 328 327 328 329 329 329 329 326 325
185 185 188 196 212 226 238 252 260 265 267 262 261 267 260 249 240 226 225 230 223 217 213 203 197 197 196 199 201 202 203 199 197 196 194 193 190 190 188 182 184 186 185 190 191 197 210 221 227 231 234 238 242 246 250 248 245 253 261 269 269 264 266 274 279 282 285 285 289 292 295 302 307 310 314 318 319 318 317 319 322 322 321 319 318
184 182 185 195 217 234 252 265 266 275 280 265 249 251 253 254 238 212 206 215 215 213 214 208 203 204 206 210 214 215 215 213 212 211 210 213 215 215 218 219 221 224 222 221 224 234 245 251 252 250 250 250 249 250 251 246 242 251 265 276 274 266 267 272 272 281 291 290 290 293 294 297 301 303 307 311 312 313 311 311 315 314 311 311 311
182 181 192 204 220 237 253 263 260 266 282 270 248 244 237 234 226 208 200 204 209 211 212 210 209 209 210 214 218 220 222 222 223 224 223 226 232 236 239 242 242 241 239 236 241 250 257 262 264 262 258 256 256 254 251 250 251 257 267 276 273 265 264 273 279 292 303 304 304 305 304 305 306 306 309 311 313 314 310 310 316 316 312 311 311
181 188 206 217 229 237 247 265 264 260 270 269 257 252 240 226 217 209 203 204 211 213 213 214 214 213 214 216 218 222 226 227 228 231 233 237 243 246 249 252 252 250 246 244 248 253 258 261 262 261 260 258 258 257 253 249 251 256 261 265 266 268 275 284 289 298 304 305 309 312 312 311 310 313 316 314 315 316 307 307 317 317 310 310 312
193 207 225 235 242 246 255 270 267 262 271 273 263 254 245 230 218 211 207 208 214 216 217 219 220 220 221 220 221 225 228 231 233 236 240 244 248 250 252 253 252 252 251 250 250 251 253 256 259 259 260 259 255 255 255 251 249 253 253 249 257 271 285 293 295 300 303 304 307 309 312 310 306 310 314 313 316 320 314 314 318 314 306 306 310
210 226 239 247 253 259 266 269 270 274 278 275 267 260 251 238 229 221 214 214 218 221 222 224 224 226 228 227 227 229 230 233 237 240 244 249 250 251 252 254 254 255 254 251 251 252 251 251 252 252 254 255 253 252 255 254 252 257 259 258 263 275 287 293 293 296 299 301 303 302 304 305 304 305 308 308 310 312 312 314 315 311 308 308 308
215 224 227 233 240 245 250 255 261 266 267 265 263 263 259 250 241 235 227 221 221 224 226 228 228 228 231 232 233 233 233 235 239 241 245 251 254 255 255 256 257 258 258 257 257 256 255 253 253 251 247 247 249 251 253 254 255 260 264 265 271 281 288 290 290 290 292 296 297 297 298 300 296 293 298 301 303 304 308 312 312 310 310 308 308
217 220 222 224 229 236 245 250 252 257 261 261 259 258 258 254 246 242 236 229 227 228 229 230 231 232 234 236 237 238 238 238 240 242 245 250 255 259 260 260 261 260 260 262 262 259 258 256 256 253 245 239 242 247 250 253 255 260 266 271 279 285 286 288 289 289 292 294 291 291 296 296 289 288 296 302 303 305 310 312 312 311 310 307 307
221 224 224 221 224 233 243 251 255 257 259 260 258 254 253 254 251 248 242 236 234 234 233 233 234 236 238 239 241 243 244 244 244 245 247 249 254 259 261 263 264 261 258 260 261 260 260 260 259 255 245 240 246 251 255 261 265 267 272 278 284 288 287 288 289 289 293 294 289 288 293 293 291 294 300 304 306 307 309 311 311 310 308 307 307
224 227 226 223 227 234 242 252 259 262 263 261 259 255 250 250 252 252 249 245 241 239 240 239 237 238 240 243 246 247 247 248 248 247 248 249 251 253 256 261 264 265 265 266 264 261 262 264 264 258 246 242 250 255 259 264 268 270 273 277 282 287 289 289 290 291 292 292 287 284 285 288 292 297 300 304 305 304 305 306 307 306 306 305 305
226 229 229 227 229 234 240 247 254 261 265 265 265 262 254 248 248 250 249 248 246 245 246 246 244 245 246 248 251 252 252 251 249 248 249 250 251 253 256 259 263 268 271 272 270 268 267 266 262 256 250 249 254 258 261 263 269 274 277 280 284 287 289 290 291 291 290 289 286 284 284 287 291 294 298 302 302 301 302 303 303 303 304 304 303
233 235 235 233 232 235 240 244 249 255 259 262 265 266 262 256 252 249 249 249 249 249 250 251 251 253 253 254 255 257 258 257 255 254 254 253 253 254 257 260 264 268 271 273 273 272 269 265 259 254 253 254 256 259 263 267 273 279 282 285 286 288 289 291 291 290 288 288 287 286 288 292 294 294 298 300 300 301 302 302 302 303 303 302 302
242 242 242 242 243 247 250 250 252 254 256 258 260 261 263 262 260 256 253 252 251 251 251 252 254 255 256 256 257 258 258 258 256 255 255 254 254 254 256 261 265 268 273 275 275 269 261 255 250 247 247 249 252 258 265 271 275 278 281 283 284 286 289 290 291 291 291 291 290 290 294 297 296 297 299 300 300 302 302 302 304 304 304 303 303
246 247 250 255 258 259 259 258 258 259 261 262 261 261 263 263 264 264 261 259 257 256 256 256 254 253 253 255 258 259 259 258 256 255 254 254 253 253 255 259 265 270 274 273 265 252 241 236 237 239 241 245 251 257 264 270 274 276 278 281 284 288 291 293 295 297 297 296 296 297 298 298 297 298 299 300 301 303 303 304 305 306 306 305 306
247 251 257 261 262 262 263 263 263 264 265 266 265 265 266 267 268 268 268 268 267 266 266 265 261 259 259 259 260 261 261 262 261 259 256 254 253 253 256 260 264 267 266 257 244 234 228 229 234 238 241 247 253 259 266 272 276 280 283 287 290 294 296 298 299 300 300 299 299 300 300 300 301 301 301 302 303 303 303 304 306 306 305 305 305
252 258 261 263 263 264 266 267 267 267 267 267 267 266 266 268 269 269 270 271 270 270 270 270 268 268 267 264 263 264 264 265 263 258 256 256 255 255 256 257 258 257 250 239 231 225 225 229 234 239 244 251 257 263 271 276 281 286 290 293 294 294 296 300 301 301 301 301 301 301 301 301 302 302 302 302 302 302 303 304 305 305 304 304 304
262 264 265 266 267 268 268 268 269 269 269 269 269 268 267 267 267 268 269 270 270 270 270 269 270 270 268 265 265 266 267 266 263 258 257 259 259 256 254 252 250 245 237 232 228 224 226 230 235 241 248 254 261 268 275 281 287 292 296 298 298 295 296 299 302 301 301 301 301 301 300 300 300 300 300 300 300 301 301 302 303 302 301 301 302
271 270 271 270 270 270 270 269 269 268 269 269 268 267 266 266 266 266 266 267 268 268 268 269 270 269 266 264 264 265 266 266 262 257 255 257 257 253 248 246 245 238 229 228 228 225 227 231 236 244 251 257 264 272 279 285 291 296 298 299 300 298 298 299 301 301 301 301 301 301 300 299 299 298 298 299 299 299 299 300 300 300 298 298 298
277 277 277 276 275 274 272 271 269 267 266 265 264 264 264 264 265 265 265 264 265 265 266 266 267 266 265 264 264 264 265 265 262 256 251 248 249 247 238 232 236 234 226 224 227 227 229 234 239 247 254 261 269 277 283 288 291 294 296 297 297 298 298 298 298 299 300 300 300 300 300 299 300 300 302 303 303 303 304 304 304 303 301 300 299
279 279 278 278 277 276 274 272 269 267 265 264 263 262 261 261 262 262 262 262 262 263 263 264 264 264 263 263 264 264 262 262 263 261 255 244 239 239 231 224 229 229 221 219 223 226 231 237 243 250 257 265 273 279 284 287 289 291 292 294 295 296 296 296 297 298 299 300 300 300 300 300 300 301 303 304 305 306 305 305 304 303 302 302 301
279 279 278 277 276 275 273 271 269 267 267 266 265 262 261 261 261 261 261 261 262 262 262 263 263 263 263 263 264 264 263 262 261 261 260 250 238 232 226 224 226 223 214 215 222 226 232 240 246 254 261 268 274 279 282 285 287 289 291 292 293 295 296 296 297 298 298 299 299 299 299 299 300 301 303 304 304 304 303 301 301 301 301 301 301
278 277 276 275 274 273 271 269 268 268 268 269 268 266 265 264 262 261 261 262 263 263 263 264 264 263 263 262 262 262 262 262 260 259 259 256 246 236 225 219 216 212 209 218 225 229 236 244 249 255 262 267 273 278 281 283 286 288 291 293 294 296 296 297 298 298 298 298 298 298 298 298 299 301 302 302 302 301 300 300 300 301 302 302 301
278 277 276 275 274 273 271 269 268 267 267 269 269 269 268 267 265 263 262 261 262 262 263 264 264 264 263 262 263 264 262 260 260 258 257 257 249 236 221 209 202 204 212 221 228 234 241 247 251 256 261 267 272 275 278 282 287 290 293 295 296 297 298 299 299 299 299 299 298 298 299 299 301 301 301 301 301 301 301 301 301 301 302 301 301
282 281 280 279 278 276 274 272 270 269 268 268 268 268 267 267 266 264 262 260 260 259 261 263 264 264 263 262 263 266 264 260 257 255 259 260 245 228 218 210 204 209 218 225 231 237 242 248 253 256 261 266 269 273 277 282 288 293 296 298 298 299 299 299 299 299 299 298 298 298 299 300 301 301 301 301 302 303 304 304 304 303 302 301 301
284 283 282 281 280 279 278 276 274 272 270 269 268 266 264 263 262 261 260 258 257 257 258 261 263 264 263 260 259 261 262 259 255 254 256 254 240 232 239 240 228 221 224 230 235 240 245 250 253 255 260 265 269 272 277 282 290 296 298 298 298 299 300 301 300 299 297 297 298 299 300 300 301 301 302 303 304 306 306 306 305 304 303 303 303
285 284 283 282 281 280 278 277 276 274 272 270 268 266 264 261 258 257 256 255 255 255 254 255 256 257 257 258 258 259 258 255 252 251 251 249 248 254 259 251 237 229 229 233 238 243 246 249 252 254 260 265 269 272 275 282 291 297 298 297 299 303 305 304 301 299 298 299 299 299 299 299 301 302 303 304 306 307 306 306 306 305 305 305 306
286 285 285 283 282 280 278 276 275 273 271 269 267 265 263 260 257 255 253 251 251 250 250 251 251 249 249 253 256 257 254 249 247 248 248 248 251 256 256 250 244 240 237 238 243 246 249 252 255 258 262 266 268 270 274 283 292 295 296 299 304 309 310 308 305 302 301 301 300 299 300 301 302 303 305 307 308 308 308 307 306 305 305 306 307
288 288 287 286 284 281 279 277 275 273 272 270 267 265 262 259 257 253 250 248 247 246 245 246 248 248 249 252 256 256 251 245 242 244 246 246 247 246 243 244 246 245 243 245 247 250 252 255 256 259 264 268 268 268 275 285 291 293 295 300 307 311 311 309 307 305 303 302 301 300 301 303 305 307 308 309 309 308 307 305 305 305 307 307 307
291 290 287 285 284 283 281 280 278 275 273 270 268 266 264 262 258 254 249 246 246 247 244 242 244 247 249 251 253 253 251 247 245 243 243 245 245 240 232 232 235 238 239 242 246 248 250 253 256 259 265 269 268 267 276 287 291 294 298 303 308 310 310 307 305 303 302 301 301 301 303 306 308 310 310 309 309 307 306 306 308 309 310 309 307
290 288 285 284 284 284 282 282 281 279 275 272 268 266 264 263 260 257 252 246 245 245 245 242 242 243 245 247 248 248 250 251 248 241 238 240 237 227 220 223 228 231 234 238 242 245 249 253 257 260 265 268 266 267 278 287 290 295 300 304 307 309 308 305 302 301 301 301 302 303 307 309 311 312 312 311 310 310 310 311 312 313 311 308 304
289 287 286 286 285 283 282 281 280 280 278 274 269 265 262 261 260 257 252 248 246 245 244 243 241 239 240 243 245 245 246 244 237 228 221 218 217 215 219 224 226 229 234 237 241 245 249 253 256 260 265 267 265 268 278 285 287 293 299 302 305 307 305 303 301 300 300 300 302 306 310 312 314 314 314 313 312 312 313 314 316 316 313 307 302
294 290 289 288 288 287 286 285 284 283 281 277 271 266 262 259 259 256 248 243 245 246 245 244 242 239 238 241 244 246 247 246 239 225 210 203 206 214 222 226 226 228 234 238 242 246 249 252 257 262 265 265 264 270 277 281 285 291 296 298 300 300 300 301 301 300 300 301 305 310 313 315 315 315 316 315 314 314 316 318 319 318 315 310 303
301 297 295 294 293 292 290 289 287 285 283 279 273 269 264 258 258 257 246 237 238 243 246 246 244 240 238 239 242 245 247 249 249 238 219 211 213 217 222 226 230 234 240 244 247 250 252 254 257 260 261 262 267 272 275 277 283 288 292 294 294 293 296 300 300 299 300 303 308 311 314 316 317 318 319 318 316 317 320 322 322 322 320 316 309
307 305 303 300 297 294 291 290 288 286 284 279 273 271 268 261 258 257 245 231 231 238 246 249 245 240 238 239 241 243 245 246 249 245 232 223 221 222 227 235 243 247 248 249 250 250 250 249 249 253 257 264 269 270 272 275 280 285 288 288 285 287 294 298 297 297 299 304 309 313 315 317 319 320 321 320 320 323 327 327 327 327 325 322 316
310 309 306 304 302 299 297 295 293 290 286 281 278 278 274 267 261 254 237 223 224 233 242 248 246 239 237 239 241 242 242 243 246 247 241 235 233 237 245 253 255 250 245 241 240 238 236 236 243 253 260 263 265 267 269 272 277 281 281 278 278 286 294 295 293 296 300 305 310 312 314 317 320 323 325 326 328 330 332 332 331 330 329 328 323
311 310 310 309 309 309 309 306 304 302 295 288 288 289 281 271 262 244 222 215 221 228 235 243 243 237 235 238 240 242 242 242 243 245 244 243 245 250 255 255 247 239 232 228 228 229 232 239 248 254 257 258 260 264 267 271 274 274 271 269 275 287 291 289 290 294 299 304 307 310 315 320 324 327 331 333 334 336 338 338 335 333 332 331 326
314 316 319 320 318 316 314 311 308 308 302 295 292 288 280 272 257 227 209 209 217 220 222 235 242 235 231 236 241 241 241 242 243 245 245 245 248 251 250 241 232 224 219 220 224 227 232 240 245 248 252 255 258 262 267 270 269 265 262 266 277 284 285 285 288 292 297 303 307 312 319 324 327 331 336 338 339 342 343 340 336 333 331 331 329
325 326 329 330 326 321 316 310 306 303 297 294 292 284 275 264 234 206 200 206 214 213 212 228 242 235 229 233 236 236 237 239 238 238 238 237 239 242 241 234 228 222 217 217 221 224 230 238 242 246 250 254 257 261 265 265 261 257 259 267 275 277 279 282 286 291 298 305 310 316 322 326 330 335 339 341 342 343 343 342 340 337 334 334 333
335 333 332 332 332 331 327 319 315 312 306 300 293 285 274 248 203 193 199 209 213 213 216 227 235 232 227 227 228 229 235 238 236 233 230 225 221 222 222 221 223 224 221 218 219 222 228 236 240 243 248 252 256 259 259 257 255 256 258 263 268 271 274 278 283 290 298 305 312 318 324 328 332 337 341 342 341 342 344 346 345 342 339 338 338
341 341 339 339 341 342 339 333 330 329 324 314 302 294 276 218 188 187 198 207 209 212 219 225 229 229 228 231 232 231 233 237 238 235 231 225 220 217 212 208 212 216 215 213 216 221 227 234 238 241 246 250 253 255 256 254 253 254 254 255 260 265 269 274 280 289 299 307 314 320 324 329 334 338 341 341 343 345 347 347 346 345 344 344 344
349 349 349 351 352 350 347 344 340 335 332 326 318 313 268 193 182 183 193 203 206 211 218 223 227 230 230 233 237 237 237 241 243 239 235 233 230 223 211 203 202 206 207 209 216 223 229 234 237 240 245 249 252 254 254 251 248 248 248 249 253 259 265 271 278 289 300 308 315 320 324 329 334 338 339 342 345 347 346 346 347 349 350 350 349
358 356 357 360 360 357 355 352 347 342 343 346 343 344 170 173 173 177 191 205 210 212 216 221 230 235 234 234 238 240 242 249 254 249 240 231 221 209 199 194 196 202 208 215 221 226 229 232 237 242 247 250 252 252 250 246 243 242 241 242 248 256 262 268 277 289 300 308 314 319 323 330 335 337 339 343 346 345 345 346 350 352 353 353 354
4 360 2 6 7 6 3 0 357 356 3 23 46 81 134 161 171 181 197 209 212 213 219 227 234 236 233 232 236 238 241 249 250 235 215 203 196 190 186 189 197 206 214 221 223 222 223 229 237 245 249 249 250 250 246 241 238 235 234 239 247 252 257 264 275 288 297 305 312 317 323 331 336 337 340 343 345 344 345 348 351 353 354 355 357
9 8 10 12 15 15 11 9 8 11 28 65 86 96 112 139 172 191 205 213 213 212 218 225 229 232 232 229 225 224 226 228 220 201 187 184 185 183 183 189 202 216 223 222 217 216 221 231 240 246 247 247 246 245 240 235 231 229 230 239 247 250 255 264 274 285 294 302 309 316 324 331 334 336 340 343 344 344 345 348 350 353 356 357 358
14 17 18 18 22 23 20 18 19 21 37 70 92 108 126 150 177 192 205 217 215 207 206 210 217 224 226 215 206 208 214 210 198 187 182 181 180 180 187 199 214 223 220 216 216 220 227 236 240 241 240 240 239 237 234 229 226 225 232 243 249 252 257 266 274 282 291 299 306 313 321 327 331 335 340 343 343 343 346 350 352 354 356 357 357
17 22 23 24 28 31 30 31 30 31 39 55 72 102 139 166 185 192 195 201 201 197 198 205 211 216 214 200 194 201 207 196 180 172 174 178 182 192 206 216 219 216 215 220 225 229 232 233 232 231 230 230 229 230 228 225 222 227 237 247 251 255 260 267 274 281 289 295 303 310 317 323 328 333 338 340 341 343 348 352 353 354 355 356 356
18 24 26 26 30 35 39 42 42 41 44 51 56 62 84 151 188 194 192 192 191 190 193 200 206 211 215 207 195 192 191 184 175 172 178 186 195 205 213 215 214 217 223 228 230 229 226 224 222 221 220 219 221 224 224 222 223 232 241 246 250 254 261 268 275 282 289 294 301 308 313 318 325 332 336 339 341 346 350 352 353 353 353 354 355
20 25 28 29 32 38 43 47 49 47 47 52 55 50 41 35 208 202 195 189 186 188 193 199 202 201 194 183 175 172 173 176 177 178 183 190 198 205 213 218 222 224 225 225 222 219 217 215 213 209 208 210 215 221 223 224 230 237 240 242 245 250 259 269 276 283 289 295 300 305 309 316 325 331 335 338 342 346 350 351 352 353 352 353 355
27 30 32 32 33 37 40 44 48 47 42 43 46 38 26 26 140 180 180 176 178 186 194 198 191 178 165 158 159 162 170 177 181 183 190 198 204 212 220 224 222 216 211 210 210 209 207 204 201 199 202 208 215 220 225 230 235 236 234 236 241 250 261 270 278 285 291 295 299 303 308 315 322 327 331 337 341 344 347 350 351 352 352 353 355
Height
3123 3124 3125 3126 3127 3127 3127 3127 3127 3126 3126 3126 3126 3125 3126 3126 3127 3128 3130 3131 3132 3132 3132 3132 3133 3133 3134 3135 3136 3136 3137 3137 3137 3138 3138 3139 3139 3139 3140 3140 3141 3142 3142 3143 3144 3144 3145 3146 3147 3147 3148 3149 3149 3150 3150 3151 3151 3151 3152 3152 3152 3152 3153 3152 3152 3152 3152 3152 3152 3152 3151 3151 3151 3150 3150 3150 3149 3149 3148 3147 3146 3146 3145 3145 3145
3123 3124 3125 3125 3126 3126 3126 3126 3126 3125 3125 3125 3124 3124 3124 3125 3126 3127 3129 3130 3131 3132 3132 3132 3133 3133 3134 3135 3135 3136 3136 3137 3137 3138 3138 3139 3140 3140 3140 3141 3142 3142 3143 3143 3144 3145 3145 3146 3147 3147 3148 3149 3149 3149 3150 3150 3151 3151 3151 3151 3151 3151 3151 3151 3151 3151 3151 3151 3151 3150 3150 3150 3149 3149 3149 3148 3147 3147 3146 3146 3145 3144 3143 3142 3142
3122 3123 3124 3125 3125 3125 3125 3125 3125 3125 3124 3124 3124 3123 3123 3124 3125 3126 3128 3129 3131 3132 3132 3133 3133 3133 3134 3135 3135 3136 3136 3137 3137 3138 3138 3139 3140 3140 3141 3141 3142 3142 3143 3143 3144 3145 3145 3146 3147 3147 3148 3148 3148 3148 3149 3150 3151 3150 3150 3150 3150 3150 3150 3151 3150 3150 3149 3150 3149 3149 3149 3149 3148 3147 3147 3146 3146 3145 3144 3143 3143 3143 3142 3141 3139
3121 3122 3123 3124 3124 3124 3124 3124 3124 3124 3124 3124 3124 3124 3124 3124 3125 3126 3127 3129 3130 3131 3132 3133 3133 3133 3134 3135 3135 3136 3136 3136 3137 3137 3138 3139 3139 3140 3141 3141 3142 3142 3143 3143 3144 3144 3145 3146 3146 3147 3147 3147 3147 3147 3148 3148 3149 3149 3149 3149 3149 3149 3149 3150 3150 3149 3148 3148 3148 3147 3147 3147 3146 3145 3145 3144 3143 3143 3142 3141 3141 3140 3140 3139 3138
3120 3121 3122 3122 3122 3123 3123 3123 3123 3123 3123 3123 3123 3123 3124 3124 3124 3125 3126 3128 3129 3131 3132 3132 3133 3133 3134 3134 3135 3135 3136 3136 3136 3137 3138 3138 3139 3140 3141 3141 3142 3142 3143 3143 3144 3144 3145 3145 3145 3146 3146 3146 3146 3146 3146 3147 3147 3147 3147 3148 3147 3148 3148 3149 3149 3148 3147 3147 3146 3146 3145 3144 3144 3143 3143 3142 3141 3141 3140 3139 3138 3137 3136 3136 3136
3118 3120 3121 3121 3121 3121 3122 3122 3122 3123 3122 3122 3123 3123 3123 3123 3124 3125 3126 3127 3128 3130 3131 3131 3132 3132 3133 3133 3134 3134 3135 3135 3135 3136 3137 3138 3139 3139 3140 3140 3141 3141 3142 3142 3143 3143 3144 3144 3144 3144 3145 3145 3145 3145 3145 3145 3145 3145 3146 3147 3146 3146 3147 3148 3147 3147 3147 3146 3144 3144 3143 3143 3142 3141 3141 3140 3139 3139 3139 3138 3137 3136 3134 3133 3132
3117 3118 3119 3119 3120 3119 3119 3120 3121 3121 3121 3121 3122 3122 3123 3123 3124 3124 3125 3126 3127 3129 3130 3130 3131 3131 3132 3132 3133 3133 3133 3134 3134 3135 3136 3137 3138 3138 3139 3139 3140 3140 3141 3141 3141 3142 3142 3143 3143 3143 3143 3143 3143 3143 3143 3143 3144 3144 3145 3145 3145 3144 3145 3146 3146 3145 3145 3145 3143 3142 3141 3140 3140 3139 3139 3138 3137 3137 3137 3136 3136 3135 3133 3131 3130
3116 3117 3117 3117 3118 3118 3118 3119 3119 3119 3120 3121 3122 3122 3123 3123 3124 3124 3125 3126 3127 3128 3128 3129 3130 3130 3130 3130 3131 3131 3132 3132 3133 3134 3134 3135 3135 3136 3137 3137 3138 3138 3139 3139 3140 3140 3140 3141 3141 3141 3141 3141 3141 3141 3141 3142 3142 3142 3142 3143 3143 3143 3143 3143 3143 3144 3143 3143 3142 3141 3140 3139 3138 3137 3137 3136 3135 3135 3134 3134 3133 3132 3130 3129 3128
3116 3116 3116 3117 3117 3118 3118 3119 3118 3118 3119 3120 3121 3121 3122 3122 3123 3123 3124 3125 3125 3126 3127 3127 3128 3128 3128 3129 3129 3129 3130 3130 3131 3132 3132 3133 3133 3133 3134 3135 3135 3136 3136 3136 3138 3138 3138 3139 3139 3139 3139 3139 3140 3140 3140 3140 3140 3140 3140 3140 3141 3141 3141 3141 3141 3141 3141 3140 3140 3139 3138 3138 3137 3135 3134 3134 3133 3132 3131 3131 3130 3128 3127 3126 3125
3114 3115 3115 3116 3117 3117 3117 3118 3118 3118 3118 3119 3119 3120 3121 3121 3122 3122 3122 3123 3123 3124 3125 3125 3126 3126 3126 3126 3126 3127 3128 3128 3129 3130 3130 3130 3131 3131 3131 3132 3133 3133 3134 3134 3135 3136 3137 3137 3137 3136 3136 3137 3137 3138 3138 3138 3138 3138 3138 3138 3138 3139 3139 3139 3139 3138 3138 3138 3138 3137 3136 3135 3135 3133 3132 3131 3130 3127 3126 3126 3126 3125 3124 3122 3122
3113 3113 3114 3114 3115 3115 3116 3116 3117 3117 3117 3117 3118 3118 3119 3120 3120 3120 3120 3121 3122 3122 3122 3123 3123 3124 3124 3124 3124 3124 3125 3126 3127 3127 3127 3128 3128 3128 3129 3129 3130 3131 3132 3133 3133 3134 3135 3134 3134 3134 3134 3134 3135 3136 3136 3136 3136 3136 3135 3135 3135 3136 3136 3136 3136 3135 3136 3136 3136 3135 3133 3132 3131 3130 3129 3128 3127 3124 3123 3122 3122 3121 3120 3118 3117
3111 3111 3112 3112 3113 3114 3114 3115 3115 3115 3115 3115 3115 3116 3117 3117 3118 3118 3118 3119 3119 3119 3120 3120 3121 3121 3122 3121 3121 3121 3122 3123 3124 3124 3124 3124 3125 3125 3126 3126 3127 3128 3129 3130 3131 3131 3131 3131 3131 3132 3132 3132 3133 3133 3133 3133 3133 3133 3133 3133 3133 3133 3133 3133 3133 3132 3132 3133 3133 3132 3131 3130 3128 3126 3125 3125 3124 3122 3121 3120 3118 3117 3116 3115 3113
3109 3109 3110 3110 3111 3112 3112 3113 3113 3113 3113 3113 3113 3113 3114 3115 3115 3115 3116 3116 3116 3116 3117 3118 3118 3118 3119 3119 3119 3118 3119 3120 3121 3121 3121 3122 3122 3122 3123 3123 3124 3124 3125 3126 3127 3127 3127 3128 3128 3128 3129 3129 3130 3130 3131 3131 3131 3131 3131 3131 3131 3130 3130 3130 3130 3130 3129 3129 3129 3128 3127 3127 3126 3123 3122 3122 3121 3119 3118 3117 3115 3114 3112 3111 3109
3106 3107 3108 3108 3109 3110 3110 3111 3111 3111 3111 3111 3110 3111 3111 3112 3112 3112 3113 3113 3112 3113 3114 3114 3115 3115 3116 3116 3116 3115 3114 3115 3116 3117 3117 3118 3118 3119 3120 3120 3120 3121 3121 3122 3123 3122 3123 3124 3125 3125 3126 3127 3127 3128 3128 3128 3128 3128 3127 3128 3128 3128 3128 3127 3127 3127 3127 3126 3125 3124 3123 3123 3123 3120 3119 3119 3117 3116 3114 3112 3111 3110 3108 3106 3105
3104 3105 3106 3106 3107 3107 3108 3108 3109 3108 3108 3109 3109 3109 3109 3109 3109 3109 3109 3109 3109 3110 3110 3110 3111 3112 3112 3112 3111 3110 3109 3109 3110 3112 3112 3112 3114 3115 3116 3116 3116 3117 3117 3117 3118 3118 3118 3120 3121 3122 3123 3124 3125 3125 3125 3125 3125 3125 3125 3125 3125 3125 3125 3124 3124 3123 3123 3122 3121 3120 3119 3119 3118 3116 3115 3115 3113 3112 3110 3108 3106 3105 3103 3101 3100
3101 3102 3103 3103 3104 3104 3104 3105 3105 3106 3106 3107 3107 3107 3107 3107 3107 3106 3106 3106 3106 3106 3106 3105 3105 3107 3107 3107 3106 3105 3103 3102 3104 3107 3107 3107 3109 3110 3111 3113 3113 3113 3113 3113 3113 3114 3115 3117 3118 3120 3121 3122 3122 3122 3122 3122 3122 3122 3122 3122 3122 3121 3121 3121 3120 3119 3119 3118 3117 3116 3116 3115 3115 3113 3112 3110 3109 3107 3105 3103 3102 3100 3097 3095 3093
3097 3099 3099 3099 3100 3100 3101 3101 3102 3102 3103 3104 3104 3104 3104 3104 3104 3103 3103 3102 3102 3102 3101 3100 3100 3100 3101 3101 3100 3099 3098 3098 3100 3102 3102 3102 3104 3106 3108 3109 3109 3109 3109 3109 3110 3111 3113 3114 3116 3117 3118 3118 3119 3119 3119 3119 3119 3119 3119 3118 3117 3117 3117 3116 3116 3115 3115 3114 3114 3113 3112 3111 3110 3109 3107 3106 3104 3102 3100 3099 3097 3095 3093 3090 3088
3094 3095 3095 3096 3096 3097 3098 3098 3098 3099 3099 3100 3100 3101 3101 3101 3100 3100 3099 3099 3098 3098 3097 3096 3096 3095 3096 3096 3095 3094 3094 3096 3097 3097 3097 3098 3100 3102 3104 3105 3105 3105 3106 3106 3107 3109 3111 3112 3113 3114 3115 3115 3115 3116 3116 3116 3115 3115 3115 3114 3113 3113 3113 3113 3112 3111 3111 3110 3109 3109 3108 3107 3105 3104 3103 3101 3100 3098 3095 3094 3093 3090 3088 3085 3083
3091 3091 3092 3093 3093 3093 3094 3094 3094 3095 3095 3096 3096 3096 3097 3097 3096 3096 3096 3095 3095 3094 3094 3093 3092 3092 3092 3092 3091 3090 3091 3094 3095 3095 3095 3096 3097 3098 3100 3100 3101 3102 3103 3103 3104 3106 3108 3109 3110 3111 3111 3112 3112 3112 3112 3112 3112 3111 3111 3110 3109 3108 3109 3109 3108 3107 3107 3106 3106 3105 3104 3103 3102 3100 3099 3097 3096 3094 3092 3090 3089 3086 3083 3081 3079
3088 3088 3089 3089 3090 3090 3090 3090 3090 3091 3091 3091 3091 3092 3092 3092 3092 3092 3092 3091 3090 3090 3090 3089 3089 3089 3088 3087 3087 3088 3088 3089 3091 3091 3091 3092 3093 3094 3096 3096 3097 3098 3099 3100 3101 3103 3104 3105 3106 3107 3108 3108 3108 3109 3109 3109 3108 3108 3107 3107 3106 3105 3105 3105 3105 3104 3103 3102 3102 3101 3100 3098 3097 3096 3094 3092 3091 3089 3087 3085 3084 3082 3079 3077 3075
3084 3084 3084 3085 3085 3085 3085 3085 3085 3086 3086 3087 3086 3087 3087 3087 3087 3087 3087 3087 3086 3086 3086 3086 3085 3085 3085 3084 3084 3084 3084 3084 3086 3086 3086 3087 3088 3089 3091 3092 3092 3093 3094 3095 3097 3099 3100 3102 3103 3104 3104 3105 3105 3105 3105 3105 3105 3105 3105 3104 3104 3103 3102 3101 3101 3101 3100 3099 3098 3097 3095 3093 3092 3090 3088 3086 3083 3081 3079 3078 3077 3075 3073 3071 3070
3079 3079 3080 3080 3080 3080 3080 3080 3080 3080 3081 3081 3081 3082 3082 3082 3082 3083 3083 3083 3082 3082 3082 3082 3081 3081 3081 3081 3081 3080 3080 3081 3082 3082 3082 3082 3081 3082 3084 3086 3087 3087 3088 3090 3092 3095 3097 3098 3099 3100 3101 3102 3102 3102 3102 3102 3102 3102 3102 3102 3101 3100 3099 3098 3097 3097 3096 3095 3093 3092 3090 3089 3087 3085 3083 3081 3079 3077 3074 3072 3071 3069 3067 3066 3064
3074 3074 3074 3075 3075 3075 3075 3075 3075 3075 3076 3076 3077 3077 3078 3078 3078 3078 3078 3078 3078 3078 3078 3078 3077 3077 3077 3077 3078 3077 3076 3077 3078 3078 3078 3079 3078 3077 3078 3079 3080 3082 3084 3084 3086 3090 3094 3095 3096 3097 3098 3098 3099 3099 3099 3099 3099 3099 3099 3099 3098 3097 3096 3095 3094 3093 3092 3090 3089 3088 3086 3085 3083 3081 3079 3077 3075 3073 3071 3068 3067 3065 3063 3062 3060
3068 3068 3068 3068 3069 3069 3069 3069 3070 3069 3070 3070 3070 3071 3072 3073 3073 3074 3074 3074 3074 3074 3073 3073 3073 3073 3072 3073 3074 3073 3072 3074 3075 3075 3075 3075 3076 3075 3074 3073 3074 3077 3079 3080 3082 3087 3090 3091 3092 3094 3094 3095 3095 3096 3096 3096 3096 3096 3096 3096 3095 3094 3093 3091 3090 3089 3087 3086 3084 3083 3082 3080 3078 3076 3075 3073 3071 3069 3066 3064 3063 3061 3059 3057 3055
3062 3062 3062 3062 3062 3062 3062 3062 3063 3063 3063 3063 3063 3064 3065 3066 3067 3068 3069 3069 3069 3069 3069 3068 3068 3068 3068 3068 3069 3069 3069 3070 3071 3071 3070 3070 3070 3070 3070 3069 3070 3074 3076 3077 3080 3084 3087 3088 3089 3090 3091 3092 3092 3093 3093 3093 3093 3093 3093 3092 3091 3090 3089 3087 3086 3085 3083 3081 3080 3078 3077 3075 3074 3072 3070 3068 3067 3064 3062 3060 3059 3057 3055 3053 3051
3055 3055 3054 3054 3054 3054 3054 3054 3054 3055 3055 3056 3056 3057 3058 3058 3059 3060 3062 3063 3063 3064 3064 3064 3064 3063 3064 3064 3065 3064 3065 3066 3066 3067 3066 3067 3067 3067 3068 3069 3069 3072 3074 3076 3079 3081 3083 3084 3086 3087 3088 3089 3089 3090 3090 3090 3090 3089 3089 3088 3087 3086 3085 3083 3082 3080 3079 3077 3076 3074 3073 3071 3069 3068 3066 3064 3063 3060 3058 3056 3054 3052 3050 3048 3046
3048 3048 3047 3046 3046 3045 3045 3045 3045 3046 3046 3047 3048 3048 3049 3050 3051 3052 3054 3055 3057 3058 3059 3059 3059 3058 3058 3059 3060 3060 3060 3061 3062 3062 3062 3063 3065 3066 3068 3068 3068 3069 3072 3074 3076 3078 3080 3081 3082 3083 3085 3086 3086 3086 3087 3087 3086 3086 3085 3084 3083 3082 3080 3079 3078 3076 3075 3073 3072 3070 3069 3067 3066 3064 3062 3061 3059 3057 3055 3052 3050 3047 3045 3043 3041
3041 3041 3040 3039 3039 3038 3037 3037 3037 3037 3037 3038 3038 3039 3040 3042 3043 3044 3046 3047 3049 3051 3053 3053 3053 3053 3052 3052 3053 3054 3055 3056 3057 3058 3059 3060 3062 3064 3065 3065 3066 3067 3069 3071 3073 3075 3076 3077 3079 3080 3081 3082 3083 3083 3083 3083 3083 3082 3081 3080 3079 3078 3077 3075 3073 3072 3071 3069 3068 3067 3065 3064 3063 3061 3059 3057 3056 3053 3051 3048 3046 3043 3040 3038 3036
3035 3035 3034 3033 3032 3031 3030 3030 3029 3029 3029 3029 3030 3030 3031 3033 3034 3036 3038 3040 3041 3043 3044 3045 3046 3047 3047 3047 3048 3049 3050 3051 3052 3054 3055 3057 3058 3060 3061 3062 3063 3064 3066 3068 3070 3071 3073 3074 3075 3076 3078 3079 3079 3080 3080 3080 3080 3079 3078 3077 3075 3074 3072 3071 3069 3068 3067 3066 3065 3063 3062 3061 3059 3058 3056 3054 3052 3050 3047 3045 3042 3039 3036 3034 3032
3030 3029 3028 3027 3026 3025 3024 3023 3022 3022 3021 3021 3022 3022 3023 3024 3025 3027 3029 3031 3032 3034 3036 3038 3040 3041 3041 3043 3045 3045 3046 3047 3048 3050 3052 3053 3054 3055 3056 3058 3059 3061 3063 3065 3067 3068 3069 3070 3071 3073 3074 3075 3076 3076 3077 3077 3076 3076 3075 3074 3072 3070 3068 3067 3065 3064 3063 3062 3061 3060 3059 3058 3056 3055 3053 3051 3049 3047 3044 3041 3038 3036 3033 3030 3028
3026 3025 3024 3023 3021 3020 3019 3018 3017 3016 3015 3015 3015 3015 3015 3016 3017 3019 3021 3023 3024 3026 3029 3032 3033 3034 3035 3038 3040 3041 3041 3042 3043 3045 3047 3048 3049 3051 3052 3053 3056 3058 3060 3062 3063 3064 3066 3067 3068 3069 3071 3072 3073 3073 3074 3073 3073 3072 3071 3070 3068 3067 3065 3063 3062 3061 3060 3059 3059 3057 3056 3055 3053 3052 3050 3048 3046 3044 3041 3038 3035 3032 3030 3027 3025
3022 3021 3020 3018 3017 3016 3014 3013 3012 3010 3009 3009 3008 3008 3009 3009 3010 3011 3013 3015 3017 3019 3021 3024 3027 3028 3030 3033 3035 3035 3036 3037 3038 3039 3041 3043 3044 3046 3048 3050 3053 3055 3056 3058 3059 3061 3062 3063 3064 3066 3067 3068 3069 3070 3070 3070 3069 3068 3067 3065 3064 3063 3062 3061 3060 3059 3058 3057 3056 3055 3054 3052 3051 3049 3047 3045 3042 3040 3037 3035 3032 3029 3027 3025 3023
3018 3016 3015 3014 3012 3011 3010 3008 3007 3005 3004 3003 3002 3002 3002 3003 3003 3004 3006 3008 3010 3012 3014 3017 3020 3022 3024 3027 3029 3031 3032 3033 3033 3033 3035 3038 3041 3043 3045 3047 3049 3050 3052 3053 3055 3056 3058 3059 3061 3063 3064 3065 3066 3066 3067 3066 3066 3065 3063 3062 3060 3059 3058 3057 3057 3056 3055 3055 3054 3053 3051 3050 3048 3046 3044 3042 3039 3037 3035 3032 3030 3027 3024 3022 3020
3014 3012 3011 3009 3007 3006 3004 3003 3001 3000 2999 2998 2996 2996 2996 2996 2997 2998 3000 3002 3004 3006 3008 3011 3014 3016 3018 3021 3024 3026 3027 3030 3031 3031 3032 3035 3037 3039 3042 3043 3044 3045 3047 3049 3050 3052 3054 3056 3057 3059 3060 3061 3062 3063 3063 3062 3062 3061 3060 3059 3057 3056 3055 3054 3054 3053 3053 3052 3051 3050 3049 3047 3046 3044 3042 3039 3037 3035 3033 3030 3027 3024 3021 3019 3017
3010 3008 3006 3005 3003 3001 2999 2997 2995 2994 2993 2992 2991 2990 2990 2991 2992 2992 2994 2997 3000 3002 3004 3006 3008 3011 3013 3016 3019 3021 3022 3025 3028 3031 3032 3033 3034 3036 3038 3039 3040 3042 3044 3045 3047 3048 3050 3052 3054 3056 3057 3057 3058 3059 3059 3059 3058 3057 3056 3055 3054 3053 3052 3051 3051 3051 3051 3050 3049 3048 3047 3045 3044 3042 3040 3038 3035 3033 3031 3028 3025 3022 3019 3017 3015
3006 3004 3003 3001 2999 2997 2994 2992 2990 2989 2987 2987 2986 2985 2985 2986 2987 2987 2989 2992 2996 2999 3000 3001 3004 3007 3009 3011 3014 3016 3018 3020 3023 3027 3029 3030 3031 3032 3034 3035 3037 3039 3040 3042 3043 3045 3046 3048 3050 3052 3053 3054 3055 3055 3055 3055 3054 3053 3052 3052 3051 3050 3050 3049 3049 3049 3049 3048 3047 3046 3045 3044 3042 3040 3038 3036 3034 3031 3028 3025 3023 3020 3017 3014 3013
3003 3001 2999 2997 2995 2992 2990 2988 2986 2984 2983 2982 2982 2982 2981 2982 2983 2984 2986 2989 2993 2996 2997 2997 2999 3002 3005 3007 3009 3012 3014 3016 3018 3021 3024 3026 3027 3028 3030 3032 3034 3036 3036 3038 3040 3041 3043 3046 3047 3048 3050 3051 3051 3051 3051 3051 3050 3049 3049 3049 3048 3047 3047 3047 3047 3047 3047 3046 3045 3044 3043 3042 3040 3039 3037 3035 3032 3029 3026 3023 3021 3018 3015 3013 3011
3001 2999 2997 2994 2992 2989 2987 2985 2983 2982 2981 2980 2980 2979 2978 2978 2979 2981 2983 2986 2990 2992 2994 2994 2996 2998 3001 3003 3005 3008 3010 3012 3014 3016 3019 3021 3023 3025 3027 3029 3031 3032 3033 3035 3037 3038 3041 3043 3044 3045 3047 3047 3047 3047 3047 3047 3047 3047 3047 3046 3045 3045 3045 3045 3046 3046 3045 3044 3044 3043 3042 3040 3039 3037 3035 3033 3030 3027 3024 3021 3019 3016 3014 3011 3009
3000 2997 2995 2992 2990 2987 2985 2984 2982 2981 2979 2978 2978 2976 2976 2976 2976 2978 2981 2984 2987 2990 2993 2993 2993 2995 2997 3000 3002 3004 3006 3008 3010 3012 3015 3018 3020 3022 3024 3025 3026 3028 3029 3031 3034 3036 3038 3040 3041 3042 3043 3043 3043 3043 3043 3044 3044 3044 3043 3043 3042 3042 3043 3044 3044 3044 3043 3043 3042 3041 3040 3039 3037 3035 3033 3030 3028 3025 3022 3020 3018 3015 3013 3010 3008
2998 2996 2993 2991 2988 2986 2984 2982 2981 2979 2978 2976 2975 2974 2973 2973 2974 2977 2980 2983 2985 2988 2991 2991 2990 2992 2995 2998 3000 3002 3004 3005 3007 3008 3010 3013 3016 3018 3021 3023 3024 3025 3026 3028 3031 3033 3035 3037 3038 3039 3040 3040 3040 3040 3041 3041 3041 3041 3040 3040 3040 3041 3042 3042 3042 3042 3042 3041 3040 3039 3038 3037 3035 3033 3031 3029 3026 3024 3022 3019 3017 3014 3011 3009 3006
2997 2995 2992 2990 2987 2985 2983 2981 2979 2977 2976 2974 2973 2972 2972 2972 2973 2976 2980 2982 2983 2986 2989 2988 2988 2991 2993 2995 2998 3000 3002 3003 3004 3006 3007 3009 3011 3013 3016 3018 3020 3022 3024 3026 3028 3030 3032 3034 3036 3036 3036 3037 3037 3038 3038 3038 3038 3037 3037 3038 3038 3039 3040 3041 3041 3041 3040 3040 3039 3038 3037 3036 3034 3032 3030 3028 3025 3023 3021 3018 3016 3013 3010 3008 3005
2996 2994 2992 2989 2986 2984 2982 2980 2978 2976 2975 2973 2972 2971 2971 2971 2973 2975 2979 2981 2983 2985 2986 2986 2987 2990 2992 2994 2996 2999 3000 3001 3003 3004 3005 3007 3008 3009 3010 3012 3015 3018 3021 3023 3025 3027 3029 3032 3033 3033 3033 3034 3034 3034 3034 3035 3035 3035 3035 3036 3037 3038 3039 3039 3039 3039 3039 3038 3037 3036 3035 3034 3032 3030 3029 3027 3024 3022 3019 3017 3015 3012 3010 3007 3004
2995 2993 2991 2988 2986 2984 2982 2980 2978 2976 2974 2973 2972 2972 2972 2972 2973 2976 2979 2981 2983 2983 2984 2985 2987 2989 2990 2992 2995 2997 2998 2999 3000 3001 3002 3004 3006 3008 3009 3010 3013 3016 3019 3021 3023 3025 3027 3029 3030 3030 3030 3031 3031 3031 3032 3032 3033 3033 3034 3035 3036 3037 3037 3038 3038 3037 3037 3037 3036 3035 3034 3033 3031 3029 3028 3026 3023 3021 3019 3017 3014 3011 3008 3005 3003
2994 2992 2990 2988 2986 2984 2982 2980 2978 2976 2974 2973 2973 2972 2973 2974 2976 2978 2979 2980 2981 2982 2984 2986 2987 2988 2990 2992 2994 2995 2996 2997 2998 2998 2999 3002 3004 3006 3007 3010 3013 3015 3017 3019 3021 3023 3025 3026 3026 3026 3028 3029 3029 3029 3030 3031 3031 3032 3033 3033 3034 3035 3036 3036 3036 3036 3036 3035 3034 3034 3033 3032 3030 3029 3027 3025 3023 3020 3018 3016 3013 3010 3007 3005 3002
2994 2992 2990 2988 2986 2984 2982 2980 2978 2977 2975 2974 2974 2974 2974 2975 2977 2979 2979 2980 2981 2983 2984 2986 2987 2988 2989 2991 2993 2994 2995 2996 2996 2996 2997 3000 3002 3004 3006 3009 3012 3014 3015 3017 3019 3021 3022 3022 3023 3024 3025 3026 3027 3028 3028 3029 3030 3030 3031 3032 3033 3034 3034 3035 3035 3035 3034 3034 3033 3033 3032 3031 3029 3028 3026 3024 3022 3020 3017 3015 3012 3010 3007 3004 3001
2994 2992 2990 2988 2986 2985 2983 2981 2980 2978 2977 2976 2975 2975 2976 2978 2979 2979 2979 2980 2982 2983 2984 2986 2987 2988 2989 2990 2992 2993 2994 2995 2996 2996 2997 3000 3002 3004 3006 3009 3011 3012 3014 3016 3017 3018 3019 3020 3021 3022 3023 3024 3025 3026 3027 3028 3028 3029 3030 3031 3032 3033 3033 3033 3033 3033 3033 3033 3032 3032 3031 3030 3028 3027 3025 3023 3021 3019 3017 3014 3012 3009 3006 3003 3001
2995 2992 2990 2989 2987 2986 2984 2983 2982 2981 2979 2978 2978 2978 2978 2979 2980 2980 2980 2981 2982 2983 2984 2986 2987 2987 2988 2990 2991 2993 2994 2995 2996 2997 2999 3001 3003 3005 3006 3008 3009 3011 3013 3014 3015 3017 3018 3019 3019 3020 3021 3022 3024 3025 3026 3026 3027 3028 3029 3030 3031 3031 3032 3032 3032 3032 3032 3031 3031 3030 3030 3029 3027 3026 3024 3022 3021 3019 3016 3014 3011 3008 3006 3003 3001
2996 2993 2991 2990 2988 2987 2986 2985 2984 2983 2982 2981 2980 2980 2980 2980 2980 2981 2981 2982 2982 2983 2985 2986 2987 2988 2989 2990 2991 2993 2995 2996 2997 2998 3000 3001 3003 3005 3006 3008 3009 3011 3012 3013 3014 3015 3017 3017 3018 3019 3020 3021 3022 3024 3025 3025 3026 3027 3028 3028 3029 3030 3030 3030 3030 3031 3030 3030 3030 3029 3029 3028 3026 3025 3023 3022 3020 3018 3015 3013 3010 3008 3005 3003 3001
2997 2995 2993 2991 2990 2989 2988 2986 2986 2985 2984 2983 2982 2982 2981 2981 2981 2981 2982 2982 2983 2984 2985 2986 2987 2988 2990 2991 2992 2993 2995 2997 2998 2999 3000 3002 3003 3005 3006 3008 3009 3010 3011 3012 3013 3014 3015 3016 3017 3018 3019 3020 3021 3022 3024 3024 3025 3026 3027 3027 3028 3028 3029 3029 3029 3029 3029 3029 3028 3028 3027 3026 3025 3024 3022 3021 3019 3017 3014 3012 3010 3008 3005 3003 3000
2999 2997 2995 2993 2992 2991 2989 2988 2987 2986 2986 2985 2984 2984 2983 2982 2982 2982 2983 2983 2984 2985 2986 2986 2988 2989 2990 2991 2992 2994 2996 2997 2999 2999 3000 3002 3003 3005 3006 3007 3008 3009 3011 3012 3013 3013 3014 3015 3016 3017 3017 3018 3020 3021 3022 3023 3024 3025 3026 3026 3027 3027 3027 3028 3028 3028 3027 3027 3027 3026 3026 3025 3024 3022 3021 3020 3018 3016 3014 3012 3010 3008 3005 3003 3000
3000 2998 2996 2995 2993 2992 2991 2990 2989 2988 2987 2986 2986 2985 2984 2983 2982 2982 2983 2985 2985 2986 2987 2988 2989 2990 2991 2992 2994 2995 2996 2997 2999 3000 3001 3002 3003 3004 3005 3006 3007 3009 3010 3011 3012 3012 3013 3014 3015 3015 3016 3018 3019 3020 3021 3022 3023 3024 3025 3025 3025 3026 3026 3026 3026 3026 3026 3026 3025 3025 3024 3023 3022 3021 3020 3018 3017 3015 3014 3012 3010 3008 3005 3003 3000